Time,TemperatureF,DewpointF,PressureIn,WindDirection,WindDirectionDegrees,WindSpeedMPH,WindSpeedGustMPH,Humidity,HourlyPrecipIn,Conditions,Clouds,dailyrainin,SoftwareType,DateUTC
2013-02-23 00:01:00,16.0,4.0,-100.00,WNW,288,33.0,43.0,61,0.00,,,-99.99,,2013-02-23 07:01:00,
2013-02-23 00:11:00,16.0,4.0,-100.00,WNW,288,33.0,43.0,61,0.00,,,-99.99,,2013-02-23 07:11:00,
2013-02-23 02:52:00,17.0,5.0,-100.00,WNW,301,32.0,45.0,61,0.00,,,-99.99,,2013-02-23 09:52:00,
2013-02-23 03:01:00,17.0,5.0,-100.00,WNW,301,35.0,49.0,61,0.00,,,-99.99,,2013-02-23 10:01:00,
2013-02-23 03:11:00,16.0,5.0,-100.00,NW,304,35.0,44.0,62,0.00,,,-99.99,,2013-02-23 10:11:00,
2013-02-23 03:21:00,16.0,6.0,-100.00,WNW,302,35.0,41.0,62,0.00,,,-99.99,,2013-02-23 10:21:00,
2013-02-23 03:32:00,17.0,6.0,-100.00,NW,304,36.0,41.0,61,0.00,,,-99.99,,2013-02-23 10:32:00,
2013-02-23 03:41:00,17.0,6.0,-100.00,WNW,302,37.0,45.0,61,0.00,,,-99.99,,2013-02-23 10:41:00,
2013-02-23 03:51:00,17.0,6.0,-100.00,WNW,301,37.0,43.0,62,0.00,,,-99.99,,2013-02-23 10:51:00,
2013-02-23 05:11:00,18.0,7.0,-100.00,WNW,298,31.0,37.0,62,0.00,,,-99.99,,2013-02-23 12:11:00,
2013-02-23 05:21:00,18.0,8.0,-100.00,WNW,298,30.0,36.0,63,0.00,,,-99.99,,2013-02-23 12:21:00,
2013-02-23 05:32:00,18.0,7.0,-100.00,WNW,299,34.0,39.0,62,0.00,,,-99.99,,2013-02-23 12:32:00,
2013-02-23 05:42:00,18.0,8.0,-100.00,WNW,294,29.0,36.0,63,0.00,,,-99.99,,2013-02-23 12:42:00,
2013-02-23 05:52:00,18.0,7.0,-100.00,WNW,295,29.0,36.0,62,0.00,,,-99.99,,2013-02-23 12:52:00,
2013-02-23 06:01:00,18.0,7.0,-100.00,WNW,299,29.0,35.0,61,0.00,,,-99.99,,2013-02-23 13:01:00,
2013-02-23 06:11:00,19.0,7.0,-100.00,WNW,295,27.0,35.0,61,0.00,,,-99.99,,2013-02-23 13:11:00,
2013-02-23 06:22:00,18.0,7.0,-100.00,WNW,301,30.0,34.0,61,0.00,,,-99.99,,2013-02-23 13:22:00,
2013-02-23 06:32:00,18.0,8.0,-100.00,NW,306,32.0,37.0,62,0.00,,,-99.99,,2013-02-23 13:32:00,
2013-02-23 06:42:00,18.0,8.0,-100.00,NW,305,32.0,39.0,62,0.00,,,-99.99,,2013-02-23 13:42:00,
2013-02-23 06:52:00,18.0,8.0,-100.00,NW,304,33.0,39.0,62,0.00,,,-99.99,,2013-02-23 13:52:00,
2013-02-23 07:02:00,18.0,8.0,-100.00,WNW,302,32.0,37.0,62,0.00,,,-99.99,,2013-02-23 14:02:00,
2013-02-23 07:11:00,19.0,8.0,-100.00,WNW,302,29.0,34.0,62,0.00,,,-99.99,,2013-02-23 14:11:00,
2013-02-23 07:21:00,19.0,8.0,-100.00,NW,305,29.0,37.0,61,0.00,,,-99.99,,2013-02-23 14:21:00,
2013-02-23 07:32:00,20.0,8.0,-100.00,WNW,302,32.0,39.0,60,0.00,,,-99.99,,2013-02-23 14:32:00,
2013-02-23 07:41:00,21.0,8.0,-100.00,NW,306,38.0,45.0,58,0.00,,,-99.99,,2013-02-23 14:41:00,
2013-02-23 07:52:00,20.0,8.0,-100.00,NW,304,36.0,42.0,58,0.00,,,-99.99,,2013-02-23 14:52:00,
2013-02-23 08:01:00,21.0,8.0,-100.00,WNW,301,32.0,43.0,58,0.00,,,-99.99,,2013-02-23 15:01:00,
2013-02-23 08:11:00,22.0,9.0,-100.00,NW,304,35.0,44.0,56,0.00,,,-99.99,,2013-02-23 15:11:00,
2013-02-23 08:21:00,22.0,8.0,-100.00,NW,304,35.0,41.0,56,0.00,,,-99.99,,2013-02-23 15:21:00,
2013-02-23 08:32:00,22.0,9.0,-100.00,WNW,295,27.0,37.0,57,0.00,,,-99.99,,2013-02-23 15:32:00,
2013-02-23 08:41:00,22.0,9.0,-100.00,WNW,299,30.0,36.0,56,0.00,,,-99.99,,2013-02-23 15:41:00,
2013-02-23 08:51:00,24.0,9.0,-100.00,WNW,292,26.0,32.0,52,0.00,,,-99.99,,2013-02-23 15:51:00,
2013-02-23 09:01:00,24.0,9.0,-100.00,WNW,294,29.0,35.0,54,0.00,,,-99.99,,2013-02-23 16:01:00,
2013-02-23 09:11:00,26.0,11.0,-100.00,WNW,298,27.0,35.0,52,0.00,,,-99.99,,2013-02-23 16:11:00,
2013-02-23 09:21:00,25.0,9.0,-100.00,WNW,298,36.0,42.0,50,0.00,,,-99.99,,2013-02-23 16:21:00,
2013-02-23 09:31:00,25.0,10.0,-100.00,WNW,294,32.0,38.0,51,0.00,,,-99.99,,2013-02-23 16:31:00,
2013-02-23 09:42:00,26.0,10.0,-100.00,WNW,294,25.0,30.0,52,0.00,,,-99.99,,2013-02-23 16:42:00,
2013-02-23 09:51:00,26.0,9.0,-100.00,WNW,296,31.0,39.0,49,0.00,,,-99.99,,2013-02-23 16:51:00,
2013-02-23 10:01:00,26.0,10.0,-100.00,WNW,299,29.0,36.0,50,0.00,,,-99.99,,2013-02-23 17:01:00,
2013-02-23 10:11:00,25.0,10.0,-100.00,WNW,298,24.0,28.0,52,0.00,,,-99.99,,2013-02-23 17:11:00,
2013-02-23 10:21:00,26.0,11.0,-100.00,WNW,294,26.0,30.0,53,0.00,,,-99.99,,2013-02-23 17:21:00,
2013-02-23 10:31:00,26.0,9.0,-100.00,WNW,292,30.0,34.0,49,0.00,,,-99.99,,2013-02-23 17:31:00,
2013-02-23 10:41:00,26.0,9.0,-100.00,WNW,296,32.0,37.0,50,0.00,,,-99.99,,2013-02-23 17:41:00,
2013-02-23 10:52:00,25.0,9.0,-100.00,WNW,298,25.0,28.0,50,0.00,,,-99.99,,2013-02-23 17:52:00,
2013-02-23 11:01:00,26.0,10.0,-100.00,WNW,295,23.0,28.0,50,0.00,,,-99.99,,2013-02-23 18:01:00,
2013-02-23 11:12:00,26.0,10.0,-100.00,WNW,296,28.0,32.0,49,0.00,,,-99.99,,2013-02-23 18:12:00,
2013-02-23 11:21:00,28.0,10.0,-100.00,NW,308,28.0,34.0,46,0.00,,,-99.99,,2013-02-23 18:21:00,
2013-02-23 11:32:00,29.0,10.0,-100.00,WNW,299,29.0,34.0,45,0.00,,,-99.99,,2013-02-23 18:32:00,
2013-02-23 11:41:00,30.0,12.0,-100.00,WNW,299,27.0,32.0,45,0.00,,,-99.99,,2013-02-23 18:41:00,
2013-02-23 11:51:00,30.0,11.0,-100.00,WNW,296,30.0,35.0,45,0.00,,,-99.99,,2013-02-23 18:51:00,
2013-02-23 12:01:00,31.0,11.0,-100.00,WNW,302,25.0,34.0,45,0.00,,,-99.99,,2013-02-23 19:01:00,
2013-02-23 12:11:00,31.0,12.0,-100.00,WNW,288,19.0,26.0,47,0.00,,,-99.99,,2013-02-23 19:11:00,
2013-02-23 12:21:00,31.0,13.0,-100.00,WNW,284,14.0,20.0,47,0.00,,,-99.99,,2013-02-23 19:21:00,
2013-02-23 12:32:00,31.0,13.0,-100.00,WNW,287,14.0,19.0,47,0.00,,,-99.99,,2013-02-23 19:32:00,
2013-02-23 12:41:00,31.0,13.0,-100.00,West,275,12.0,16.0,45,0.00,,,-99.99,,2013-02-23 19:41:00,
2013-02-23 12:51:00,32.0,12.0,-100.00,WNW,296,12.0,15.0,43,0.00,,,-99.99,,2013-02-23 19:51:00,
2013-02-23 13:01:00,34.0,13.0,-100.00,NW,304,13.0,17.0,42,0.00,,,-99.99,,2013-02-23 20:01:00,
2013-02-23 13:11:00,33.0,12.0,-100.00,WNW,302,16.0,21.0,42,0.00,,,-99.99,,2013-02-23 20:11:00,
2013-02-23 13:21:00,33.0,13.0,-100.00,NW,305,15.0,19.0,43,0.00,,,-99.99,,2013-02-23 20:21:00,
2013-02-23 13:32:00,31.0,13.0,-100.00,SW,232,9.0,12.0,46,0.00,,,-99.99,,2013-02-23 20:32:00,
2013-02-23 13:41:00,31.0,13.0,-100.00,South,176,11.0,13.0,49,0.00,,,-99.99,,2013-02-23 20:41:00,
2013-02-23 13:52:00,30.0,13.0,-100.00,SSW,196,7.0,9.0,49,0.00,,,-99.99,,2013-02-23 20:52:00,
2013-02-23 14:01:00,30.0,13.0,-100.00,South,189,10.0,13.0,49,0.00,,,-99.99,,2013-02-23 21:01:00,
2013-02-23 14:11:00,30.0,13.0,-100.00,South,191,9.0,11.0,49,0.00,,,-99.99,,2013-02-23 21:11:00,
2013-02-23 14:22:00,31.0,13.0,-100.00,South,179,8.0,11.0,48,0.00,,,-99.99,,2013-02-23 21:22:00,
2013-02-23 14:31:00,30.0,13.0,-100.00,South,175,10.0,12.0,48,0.00,,,-99.99,,2013-02-23 21:31:00,
2013-02-23 14:41:00,30.0,13.0,-100.00,South,172,11.0,15.0,49,0.00,,,-99.99,,2013-02-23 21:41:00,
2013-02-23 18:31:00,26.0,11.0,-100.00,WSW,247,3.0,5.0,53,0.00,,,-99.99,,2013-02-24 01:31:00,
2013-02-23 18:41:00,26.0,11.0,-100.00,WSW,248,6.0,7.0,54,0.00,,,-99.99,,2013-02-24 01:41:00,
2013-02-23 18:51:00,26.0,11.0,-100.00,SW,233,4.0,7.0,53,0.00,,,-99.99,,2013-02-24 01:51:00,
2013-02-23 19:01:00,25.0,11.0,-100.00,SW,233,2.0,4.0,55,0.00,,,-99.99,,2013-02-24 02:01:00,
2013-02-23 19:11:00,25.0,11.0,-100.00,West,260,3.0,4.0,56,0.00,,,-99.99,,2013-02-24 02:11:00,
2013-02-23 19:21:00,25.0,12.0,-100.00,WNW,287,3.0,5.0,56,0.00,,,-99.99,,2013-02-24 02:21:00,
2013-02-23 19:32:00,25.0,12.0,-100.00,North,359,2.0,4.0,57,0.00,,,-99.99,,2013-02-24 02:32:00,
2013-02-23 19:41:00,25.0,13.0,-100.00,NW,326,4.0,6.0,60,0.00,,,-99.99,,2013-02-24 02:41:00,
2013-02-23 19:52:00,25.0,13.0,-100.00,NW,311,5.0,7.0,59,0.00,,,-99.99,,2013-02-24 02:52:00,
2013-02-23 20:01:00,25.0,13.0,-100.00,WNW,292,3.0,4.0,61,0.00,,,-99.99,,2013-02-24 03:01:00,
2013-02-23 20:11:00,24.0,13.0,-100.00,SW,217,1.0,2.0,62,0.00,,,-99.99,,2013-02-24 03:11:00,
2013-02-23 20:21:00,25.0,13.0,-100.00,NNE,14,2.0,2.0,60,0.00,,,-99.99,,2013-02-24 03:21:00,
2013-02-23 20:32:00,24.0,18.0,-100.00,NNE,13,9.0,10.0,76,0.00,,,-99.99,,2013-02-24 03:32:00,
2013-02-23 20:42:00,24.0,19.0,-100.00,North,356,4.0,7.0,82,0.00,,,-99.99,,2013-02-24 03:42:00,
2013-02-23 20:52:00,23.0,19.0,-100.00,North,4,5.0,6.0,82,0.00,,,-99.99,,2013-02-24 03:52:00,
2013-02-23 21:01:00,23.0,20.0,-100.00,North,349,5.0,7.0,86,0.01,,,-99.99,,2013-02-24 04:01:00,
2013-02-23 21:11:00,22.0,20.0,-100.00,NNW,344,2.0,3.0,89,0.00,,,-99.99,,2013-02-24 04:11:00,
2013-02-23 21:21:00,22.0,20.0,-100.00,WSW,257,1.0,2.0,90,0.00,,,-99.99,,2013-02-24 04:21:00,
2013-02-23 21:31:00,22.0,20.0,-100.00,South,191,2.0,4.0,91,0.01,,,-99.99,,2013-02-24 04:31:00,
2013-02-23 21:41:00,22.0,20.0,-100.00,SSW,202,2.0,4.0,93,0.00,,,-99.99,,2013-02-24 04:41:00,
2013-02-23 21:51:00,22.0,20.0,-100.00,SW,216,2.0,2.0,94,0.00,,,-99.99,,2013-02-24 04:51:00,
2013-02-23 22:01:00,22.0,20.0,-100.00,SW,220,1.0,2.0,95,0.01,,,-99.99,,2013-02-24 05:01:00,
2013-02-23 22:11:00,21.0,20.0,-100.00,SW,236,2.0,4.0,95,0.01,,,-99.99,,2013-02-24 05:11:00,
2013-02-23 22:22:00,21.0,20.0,-100.00,West,267,4.0,6.0,95,0.01,,,-99.99,,2013-02-24 05:22:00,
2013-02-23 22:32:00,21.0,20.0,-100.00,West,275,4.0,6.0,96,0.04,,,-99.99,,2013-02-24 05:32:00,
2013-02-23 22:42:00,21.0,20.0,-100.00,SSE,157,3.0,6.0,97,0.10,,,-99.99,,2013-02-24 05:42:00,
2013-02-23 22:52:00,21.0,20.0,-100.00,South,179,2.0,4.0,97,0.00,,,-99.99,,2013-02-24 05:52:00,
2013-02-23 23:01:00,21.0,20.0,-100.00,SSE,154,2.0,4.0,97,0.00,,,-99.99,,2013-02-24 06:01:00,
2013-02-23 23:11:00,21.0,20.0,-100.00,SSE,158,2.0,5.0,97,0.00,,,-99.99,,2013-02-24 06:11:00,
2013-02-23 23:21:00,20.0,19.0,-100.00,SE,128,4.0,4.0,97,0.00,,,-99.99,,2013-02-24 06:21:00,
2013-02-23 23:31:00,20.0,19.0,-100.00,ESE,113,2.0,2.0,97,0.00,,,-99.99,,2013-02-24 06:31:00,
2013-02-23 23:41:00,19.0,19.0,-100.00,ESE,114,2.0,2.0,97,0.00,,,-99.99,,2013-02-24 06:41:00,
2013-02-23 23:52:00,19.0,18.0,-100.00,SE,141,1.0,2.0,97,0.00,,,-99.99,,2013-02-24 06:52:00,